[Iaude] MPEC B01: 2024 AO4 [a=2.44,e=0.58,i=10.1,H=23.7]
    mpec at marsden.cfa.harvard.edu 
    mpec at marsden.cfa.harvard.edu
       
    Mon Jan 15 21:28:00 EST 2024
    
    
  
M.P.E.C. 2024-B01                              Issued 2024 January 16, 02:26 UT
     The Minor Planet Electronic Circulars contain information on unusual
         minor planets, routine data on comets and natural satellites,
         and occasional editorial announcements.  They are published
    on behalf of Division F of the International Astronomical Union by the
          Minor Planet Center, Smithsonian Astrophysical Observatory,
                          Cambridge, MA 02138, U.S.A.
			  
             Prepared using the Tamkin Foundation Computer Network
                              MPC at CFA.HARVARD.EDU
            URL https://www.minorplanetcenter.net/    ISSN 1523-6714
                                    2024 AO4                                    
Observations:
     K24A04O*1C2024 01 14.50288211 01 55.088-00 19 09.37         19.84GVEB001G96
     K24A04O 1C2024 01 14.50803911 01 59.005-00 18 38.77               VEB001G96
     K24A04O 1C2024 01 14.51319811 02 02.839-00 18 09.25         19.75GVEB001G96
     K24A04O 1C2024 01 14.51835611 02 06.659-00 17 39.37         19.85GVEB001G96
     K24A04O KC2024 01 14.53590511 02 19.874-00 15 56.95         20.03GVEB001V06
     K24A04O KC2024 01 14.53727411 02 20.886-00 15 49.32         20.03GVEB001V06
     K24A04O KC2024 01 14.53864111 02 21.923-00 15 41.33         20.13GVEB001V06
     K24A04O KC2024 01 14.54001011 02 22.967-00 15 33.30         19.70GVEB001V06
     K24A04O 1C2024 01 15.49551711 14 39.552+01 15 47.34         20.12GVEB001G96
     K24A04O 1C2024 01 15.49581711 14 39.757+01 15 49.32         20.10GVEB001G96
     K24A04O 1C2024 01 15.49611611 14 39.984+01 15 50.87         19.98GVEB001G96
     K24A04O 1C2024 01 15.49641611 14 40.207+01 15 52.45         20.18GVEB001G96
     K24A04O KC2024 01 16.05933211 21 42.838+02 07 52.90         20.3 GVEB001J95
     K24A04O KC2024 01 16.07876511 21 56.616+02 09 40.97         20.0 GVEB001J95
Observer details:
G96 Mt. Lemmon Survey.  Observer H. Groeller.  Measurers T. Beuden, V. F.
    Carvajal, D. Fay, J. B. Fazekas, D. C. Fuls, A. R. Gibbs, A. D. Grauer, H.
    Groeller, J. K. Hogan, R. A. Kowalski, S. M. Larson, G. J. Leonard, D.
    Rankin, R. L. Seaman, F. C. Shelly, K. W. Wierzchos.  1.5-m reflector +
    10K CCD.
J95 Great Shefford.  Observer P. Birtwhistle.  0.41-m f/6.3 Schmidt-Cassegrain
    + CCD.
V06 Catalina Sky Survey-Kuiper.  Observer K. W. Wierzchos.  Measurers T.
    Beuden, V. F. Carvajal, D. Fay, J. B. Fazekas, D. C. Fuls, A. R. Gibbs, A.
    D. Grauer, H. Groeller, J. K. Hogan, R. A. Kowalski, S. M. Larson, G. J.
    Leonard, D. Rankin, R. L. Seaman, F. C. Shelly, K. W. Wierzchos.  1.55-m
    reflector + 1K CCD.
Orbital elements:
2024 AO4                                                 Earth MOID = 0.0478 AU
Epoch 2023 Sept. 13.0 TT = JDT 2460200.5                MPC                     
M 327.42609              (2000.0)            P               Q                  
n   0.25887885     Peri.    0.04403     -0.49597503     -0.85491322             
a   2.4382131      Node   119.69071     +0.79662989     -0.51768067             
e   0.5762857      Incl.   10.08322     +0.34552798     -0.03361728             
P   3.81           H   23.78          G   0.15           U   9                  
Residuals in seconds of arc
240114 G96  0.4-  0.1-    240114 V06  0.2-  0.1-    240115 G96  0.1+  0.0
240114 G96  0.4+  0.5+    240114 V06  0.0   0.1-    240115 G96  0.2+  0.1-
240114 G96  0.0   0.0     240114 V06  0.2+  0.0     240116 J95  0.3+  0.2-
240114 G96  0.7-  0.1-    240115 G96  0.0   0.1-    240116 J95  0.0   0.3+
240114 V06  0.1+  0.2+    240115 G96  0.1-  0.1+
Ephemeris:
2024 AO4                 a,e,i = 2.44, 0.58, 10                  q = 1.0331
Date    TT    R. A. (2000) Decl.     Delta      r    Elong.  Phase     V
2023 12 17    06 12 11.9 -19 52 49   0.1604  1.1050   135.9    38.3    21.6
...
2024 01 01    07 59 28.1 -17 48 06   0.09529 1.0528   135.0    41.4    20.4
...
2024 01 09    09 44 39.0 -09 12 06   0.07889 1.0380   132.1    44.6    20.1
...
2024 01 15    11 08 22.9 +00 29 37   0.08121 1.0334   125.9    50.4    20.3
2024 01 16    11 20 56.0 +02 03 41   0.08282 1.0331   124.8    51.5    20.3
2024 01 17    11 32 54.3 +03 34 05   0.08472 1.0331   123.6    52.4    20.4
...
2024 01 23    12 31 49.9 +10 59 39   0.1011  1.0361   118.4    56.7    20.9
...
2024 01 31    13 20 59.5 +17 05 51   0.1308  1.0489   115.9    57.6    21.5
...
2024 02 15    14 00 55.4 +22 53 59   0.1937  1.0977   120.1    51.1    22.3
                      (Last issue was M.P.E.C. 2024-A168)                       
A. U. Tomatic                (C) Copyright 2024 MPC           M.P.E.C. 2024-B01
    
    
More information about the Iaude
mailing list